Content
SEND FEEDBACK

Daily
Averages
Monthly
Summary
United States of America

CEDAR, MICHIGAN


Home > North America > United States > Michigan
Elevation: 748 feet     Latitude: 44 50N     Longitude: 085 50W

WEATHER
 
SELECT A DAY
Number of Records: 19,632;   Date Range: 1/1/12 - 7/14/14
 
SHARE

PRINT THIS DATA

[ ← Previous Day ]
WEATHER ALMANAC - FEBRUARY 13, 2013
[ Next Day → ]
[ °C ]   °F
Weather ElementAverageHighLow
Temperature33 °F37.9 °F (1:53 pm)26.1 °F (1:53 am)
Dewpoint25.4 °F28.9 °F (11:53 pm)19.9 °F (1:53 am)
Humidity73.9 %85 % (8:53 am)62 % (1:53 pm)
Barometer29.71 in29.83 in (1:53 am)29.66 in (12:47 pm)
Wind Speed5.8 mph10.4 mph (11:53 am)
Wind Gust17.3 mph (10:53 am)
Weather ElementAverage
Visibility8.1 mi
Wind DirectionSSE (162.7 °)

Weather ElementTotal
Precipitation---
Heating Degree Days33 (Base 65)
Averaged from 26 records on February 13, 2013
WEATHER CONDITIONS BREAKOUT
WIND DIRECTION BREAKOUT
WEATHER BY HOUR - FEBRUARY 13, 2013
[ °C ]   °F
Local TimeTemperatureDewpointHumidityBarometerVisibilityWind DirectionWind SpeedGust SpeedPrecipitationEventsConditions
1:53 AM26.1 °F19.9 °F78 %29.83 in10.0 miSSW (200°)3.5 mphOvercast
2:53 AM27.0 °F19.9 °F75 %29.81 in10.0 miSSW (200°)6.9 mphMostly Cloudy
3:53 AM28.0 °F21.0 °F75 %29.79 in10.0 miSouth (190°)5.8 mphOvercast
4:53 AM28.0 °F21.9 °F78 %29.78 in10.0 miSouth (180°)5.8 mphOvercast
5:53 AM28.0 °F23.0 °F81 %29.76 in10.0 miSouth (190°)5.8 mphOvercast
6:53 AM28.0 °F23.0 °F81 %29.74 in8.0 miSouth (180°)4.6 mphMostly Cloudy
7:05 AM28.4 °F23.0 °F80 %29.71 in7.0 miVariable3.5 mphMostly Cloudy
7:53 AM28.9 °F24.1 °F82 %29.73 in5.0 miSouth (180°)5.8 mphHaze
8:53 AM28.9 °F25.0 °F85 %29.72 in5.0 miVariable5.8 mphMostly Cloudy
9:41 AM32.0 °F26.6 °F80 %29.69 in6.0 miSW (230°)4.6 mphHaze
9:53 AM33.1 °F26.1 °F75 %29.72 in6.0 miSW (230°)8.1 mphHaze
10:53 AM34.0 °F27.0 °F75 %29.71 in6.0 miSW (230°)8.1 mph17.3 mphHaze
11:53 AM36.0 °F27.0 °F70 %29.70 in7.0 miSW (230°)10.4 mph17.3 mphMostly Cloudy
12:47 PM35.6 °F26.6 °F70 %29.66 in8.0 miSW (220°)9.2 mphOvercast
12:53 PM37.0 °F27.0 °F67 %29.68 in8.0 miSW (230°)10.4 mph16.1 mphOvercast
1:53 PM37.9 °F26.1 °F62 %29.68 in9.0 miWSW (240°)6.9 mphOvercast
2:53 PM37.9 °F26.1 °F62 %29.67 in10.0 miWSW (240°)8.1 mphOvercast
3:53 PM37.9 °F28.0 °F68 %29.68 in10.0 miSSW (210°)5.8 mphOvercast
4:53 PM37.9 °F26.1 °F62 %29.68 in10.0 miSW (230°)5.8 mphOvercast
5:53 PM37.0 °F26.1 °F65 %29.68 in10.0 miSW (220°)4.6 mphOvercast
6:53 PM36.0 °F27.0 °F70 %29.68 in10.0 miSSW (210°)3.5 mphOvercast
7:53 PM35.1 °F27.0 °F72 %29.69 in8.0 miVariable4.6 mphOvercast
8:53 PM35.1 °F27.0 °F72 %29.68 in8.0 miVariable5.8 mphOvercast
9:53 PM35.1 °F28.0 °F76 %29.68 in7.0 miVariable3.5 mphOvercast
10:53 PM34.0 °F28.0 °F79 %29.67 in6.0 miSouth (190°)3.5 mphHaze
11:53 PM34.0 °F28.9 °F82 %29.67 in6.0 miCalmHaze
Hourly data recorded from KTVC, located miles away from Cedar, Michigan







STORIES FROM OUR PARTNERS